FW4340 Weather Reports


time (UTC)temp
C
wind
direction
speed
KPH
gust
KPH
rain 1hr
cm
rain 24hr
cm
rain mn
cm
humidity
%
barometer
mb
20260508121546 11 37 12.9 17.7 0.00 0.00 0.00 85 1014.2
20260508120045 11 43 16.1 17.7 0.00 0.00 0.00 84 1014.2
20260508114545 11 58 14.5 16.1 0.00 0.00 0.00 83 1014.2
20260508113044 12 37 11.3 16.1 0.00 0.00 0.00 83 1014.2
20260508111544 12 39 8.0 11.3 0.00 0.00 0.00 81 1014.2
20260508110041 12 50 9.7 14.5 0.00 0.00 0.00 80 1014.1
20260508104541 12 56 9.7 11.3 0.00 0.00 0.00 80 1014.0
20260508103047 12 47 9.7 11.3 0.00 0.00 0.00 80 1014.1
20260508101544 12 21 6.4 12.9 0.00 0.00 0.00 81 1014.1
20260508100037 12 43 6.4 9.7 0.00 0.00 0.00 77 1014.2
20260508094535 11 100 3.2 6.4 0.00 0.00 0.00 79 1014.1
20260508093036 11 49 4.8 9.7 0.00 0.00 0.00 79 1014.1
20260508091533 11 56 3.2 8.0 0.00 0.00 0.00 79 1014.1
20260508090036 11 57 4.8 8.0 0.00 0.00 0.00 79 1014.1
20260508084530 11 92 6.4 11.3 0.00 0.00 0.00 79 1014.1
20260508083028 11 118 1.6 6.4 0.00 0.00 0.00 79 1014.1
20260508081527 11 95 4.8 11.3 0.00 0.00 0.00 80 1013.9
20260508080049 11 105 3.2 8.0 0.00 0.00 0.00 81 1013.7
20260508074521 11 162 6.4 9.7 0.00 0.00 0.00 81 1013.7
20260508073023 10 141 8.0 11.3 0.00 0.00 0.00 81 1013.6
20260508071516 10 224 1.6 3.2 0.00 0.00 0.00 81 1013.5
20260508070021 10 224 0.0 4.8 0.00 0.00 0.00 81 1013.5
20260508064533 10 221 3.2 8.0 0.00 0.00 0.00 82 1013.5
20260508063011 10 224 1.6 6.4 0.00 0.00 0.00 82 1013.3
20260508061512 9 199 3.2 4.8 0.00 0.00 0.00 82 1013.1
20260508060008 9 199 0.0 1.6 0.00 0.00 0.00 82 1013.0
20260508054507 9 199 0.0 4.8 0.00 0.00 0.00 82 1013.0
20260508053006 8 175 0.0 8.0 0.00 0.00 0.00 82 1012.8
20260508051504 8 202 1.6 8.0 0.00 0.00 0.00 81 1012.9
20260508050007 8 220 4.8 11.3 0.00 0.00 0.00 81 1012.8
20260508044503 9 208 4.8 11.3 0.00 0.00 0.00 81 1012.6
20260508043002 9 193 12.9 16.1 0.00 0.00 0.00 81 1012.5
20260508041503 9 213 11.3 16.1 0.00 0.00 0.00 81 1012.4
20260508040114 9 193 9.7 14.5 0.00 0.00 0.00 81 1012.4
20260508034600 8 359 9.7 16.1 0.00 0.00 0.00 81 1012.4
20260508033100 8 191 9.7 17.7 0.00 0.00 0.00 81 1012.4
20260508031559 9 219 6.4 14.5 0.00 0.00 0.00 81 1012.3
20260508030058 9 230 8.0 14.5 0.00 0.00 0.00 81 1012.5
20260508024557 9 217 4.8 12.9 0.00 0.00 0.00 81 1012.4
20260508023057 8 218 8.0 14.5 0.00 0.00 0.00 81 1012.5
20260508021556 8 206 9.7 16.1 0.00 0.00 0.00 81 1012.4
20260508020057 8 224 8.0 12.9 0.00 0.00 0.00 81 1012.4
20260508014553 8 224 6.4 9.7 0.00 0.00 0.00 81 1012.4
20260508013052 8 237 3.2 9.7 0.00 0.00 0.00 81 1012.4
20260508011550 8 233 8.0 14.5 0.00 0.00 0.00 81 1012.4
20260508010050 8 210 8.0 14.5 0.00 0.00 0.00 81 1012.4
20260508004552 9 231 9.7 17.7 0.00 0.00 0.00 80 1012.4
20260508003050 9 216 6.4 14.5 0.00 0.00 0.00 80 1012.5
20260508001545 9 235 6.4 12.9 0.00 0.00 0.00 80 1012.4
20260508000043 9 214 6.4 14.5 0.00 0.00 0.00 80 1012.5
20260507234552 9 207 11.3 17.7 0.00 0.00 0.00 80 1012.4
20260507233058 10 196 11.3 17.7 0.00 0.00 0.00 80 1012.5
20260507231539 10 187 12.9 20.9 0.00 0.00 0.00 80 1012.4
20260507230038 10 203 16.1 22.5 0.00 0.00 0.00 79 1012.3
20260507224536 10 195 14.5 25.7 0.00 0.00 0.00 79 1012.3
20260507223046 10 194 14.5 24.1 0.00 0.00 0.00 78 1012.2
20260507221536 10 196 12.9 24.1 0.00 0.00 0.00 78 1012.2
20260507220038 10 199 19.3 29.0 0.00 0.00 0.00 78 1012.1
20260507214533 10 215 14.5 22.5 0.00 0.00 0.00 77 1012.1
20260507213034 10 208 16.1 25.7 0.00 0.00 0.00 77 1012.0
20260507211540 10 189 16.1 24.1 0.00 0.00 0.00 76 1012.1
20260507210038 11 193 12.9 17.7 0.00 0.00 0.00 75 1012.0
20260507204536 11 208 14.5 19.3 0.00 0.00 0.00 74 1012.0
20260507203031 11 195 11.3 16.1 0.00 0.00 0.00 73 1011.9
20260507201530 11 220 11.3 19.3 0.00 0.00 0.00 72 1011.8
20260507200031 11 208 9.7 17.7 0.00 0.00 0.00 73 1011.6
20260507194545 11 189 9.7 14.5 0.00 0.00 0.00 72 1011.5
20260507193030 12 199 11.3 16.1 0.00 0.00 0.00 72 1011.4
20260507191528 12 206 4.8 14.5 0.00 0.00 0.00 72 1011.3
20260507190040 12 203 6.4 12.9 0.00 0.00 0.00 72 1011.2
20260507184538 12 189 4.8 11.3 0.00 0.00 0.00 73 1011.2
20260507183030 12 184 8.0 16.1 0.00 0.00 0.00 71 1011.0
20260507181526 12 214 4.8 11.3 0.00 0.00 0.00 71 1010.9
20260507180028 12 222 3.2 14.5 0.00 0.00 0.00 71 1010.9
20260507174532 12 258 11.3 16.1 0.00 0.00 0.00 72 1010.9
20260507173040 12 226 6.4 12.9 0.00 0.00 0.00 73 1011.0
20260507171524 12 211 8.0 16.1 0.00 0.00 0.00 74 1011.0
20260507170024 12 209 9.7 19.3 0.00 0.00 0.00 75 1011.0
20260507164533 12 210 8.0 16.1 0.00 0.00 0.00 75 1011.0
20260507163025 12 214 9.7 17.7 0.00 0.00 0.00 74 1010.9
20260507161523 12 192 14.5 25.7 0.00 0.00 0.00 70 1011.0
20260507160026 13 185 17.7 30.6 0.00 0.00 0.00 70 1011.1
20260507154521 12 210 14.5 22.5 0.00 0.00 0.00 72 1011.1
20260507153026 12 98 4.8 11.3 0.00 0.00 0.00 75 1011.1
20260507151519 12 86 6.4 11.3 0.00 0.00 0.00 78 1011.2
20260507150018 11 119 3.2 6.4 0.00 0.00 0.00 79 1011.2
20260507144517 12 109 3.2 4.8 0.00 0.00 0.00 80 1011.4
20260507143022 11 104 0.0 6.4 0.00 0.00 0.00 80 1011.4
20260507141519 12 62 6.4 8.0 0.00 0.00 0.00 81 1011.7
20260507140020 12 24 1.6 3.2 0.00 0.00 0.00 80 1011.7
20260507134515 12 16 1.6 4.8 0.00 0.00 0.00 80 1011.5
20260507133015 12 33 3.2 8.0 0.00 0.00 0.00 80 1011.6
20260507131518 12 359 6.4 8.0 0.00 0.00 0.00 78 1011.7
20260507130013 12 359 3.2 8.0 0.00 0.00 0.00 77 1011.6
20260507124519 12 359 4.8 9.7 0.00 0.00 0.00 77 1011.6
20260507123014 12 343 3.2 8.0 0.00 0.00 0.00 74 1011.7